Home   Weather   Aachen   Past weeks
Flag for Germany

Past Weather in Aachen, North Rhine-Westphalia, Germany — July 2019

Now
68 °F

Broken clouds.


Feels Like: 68 °F
Forecast: 64 / 51 °F
Wind: 10 mph from Southwest

Location: Geilenkirchen Airport

Current Time: Sep 23, 2019 at 2:06:52 pm

Latest Report: Sep 23, 2019 at 12:50 pm


Visibility: N/A

Pressure: 29.98 "Hg

Humidity: 69%

Dew Point: 57 °F

Location of AachenLocation

July 2019 Weather in Aachen — Graph

°F

High & Low Weather Summary for July 2019

 TemperatureHumidityPressure
High102 °F (Jul 24, 3:50 pm)100% (Jul 9, 4:50 am)30.30 "Hg (Jul 9, 4:50 am)
Low45 °F (Jul 4, 5:50 am)20% (Jul 24, 5:50 pm)29.71 "Hg (Jul 26, 3:50 pm)
Average68 °F63%30.03 "Hg
* Reported Jul 1 12:50 am — Jul 31 11:50 pm, Aachen. Weather by CustomWeather, © 2019

Note: Actual official high and low records may vary slightly from our data, if they occured in-between our weather recording intervals... More about our weather records

Advertising

Aachen Weather History for July 1, 2019

Scroll right to see more
 ConditionsComfort  
Time TempWeatherWind HumidityBarometerVisibility
12:50 am
Mon, Jul 1
64 °FClear.No wind73%30.04 "Hg10 mi
1:50 am66 °FPartly cloudy.2 mph68%30.04 "HgN/A
2:50 am63 °FPartly cloudy.5 mph77%30.01 "HgN/A
3:50 am64 °FClear.2 mph73%30.04 "Hg10 mi
4:50 am61 °FClear.5 mph83%30.04 "Hg10 mi
5:50 am64 °FPartly sunny.5 mph78%30.04 "HgN/A
6:50 am63 °FBroken clouds.7 mph77%30.04 "HgN/A
7:50 am63 °FBroken clouds.7 mph77%30.07 "HgN/A
8:50 am64 °FBroken clouds.8 mph73%30.07 "HgN/A
9:50 am66 °FScattered clouds.7 mph73%30.07 "HgN/A
10:50 am70 °FScattered clouds.10 mph60%30.09 "HgN/A
11:50 am72 °FScattered clouds.14 mph57%30.07 "HgN/A
12:50 pm73 °FScattered clouds.16 mph50%30.07 "HgN/A
1:50 pm73 °FScattered clouds.15 mph50%30.07 "HgN/A
2:50 pm75 °FPartly sunny.14 mph47%30.07 "HgN/A
3:50 pm75 °FSunny.16 mph44%30.09 "Hg10 mi
4:50 pm77 °FSunny.14 mph42%30.07 "Hg10 mi
5:50 pm75 °FSunny.16 mph41%30.07 "Hg10 mi
6:50 pm75 °FSunny.13 mph44%30.07 "Hg10 mi
7:50 pm73 °FSunny.13 mph47%30.09 "Hg10 mi
8:50 pm70 °FSunny.9 mph53%30.09 "Hg10 mi
9:50 pm64 °FSunny.8 mph64%30.12 "Hg10 mi
10:50 pm61 °FPassing clouds.5 mph68%30.15 "HgN/A
11:50 pm59 °FClear.5 mph72%30.18 "Hg10 mi
Weather by CustomWeather, © 2019

See weather overview